ニオワイズ彗星

C/2021 A10 ( NEOWISE )

English version
Home page
Updated on June 1, 2021

---------------------------------------------------------------------

・ プロフィール

発見日 2021年1月12日
発見光度 19等
発見者 Near-Earth Object Wide-field Infrared Survey Explorer

・ 写真集

・ 軌道要素

Epoch 2021 Mar. 7.0 TT = JDT 2459280.5
T 2021 Mar. 15.27438 TT                                 Rudenko
q   1.2684800            (2000.0)            P               Q
z  +0.0109674      Peri.   82.27295     -0.25948728     +0.96326287
 +/-0.0001078      Node   188.34765     +0.58486714     +0.21377814
e   0.9860880      Incl.  151.52534     +0.76850295     +0.16255325
From 114 observations 2020 Dec. 26-2021 Feb. 20, mean residual 0".5.

・ 光度変化

        m1 = 18.0 + 5 logΔ + 10.0 log r

---------------------------------------------------------------------

軌道要素はM.P.E.C. 2021-L04に掲載されたものです。
光度グラフはComet for Windowsで作成したものです。

---------------------------------------------------------------------

Copyright(C) Seiichi Yoshida (comet@aerith.net). All rights reserved.